Location: *
(55.5817°S, 142.4781°W)
Time: 06:55:58
(UTC+00:00)

SMAP - Pass Details

Date: 29 April 2025
Orbit: 681 x 683 km, 98.1° (Epoch: 23 May)

Event Time Altitude Azimuth Distance (km) Brightness Sun altitude
Rises 15:35:04 0° 347° (NNW) 3,050 6.4 -11.0°
Reaches altitude 10° 15:37:31 10° 336° (NNW) 2,143 5.5 -10.6°
Maximum altitude 15:41:41 31° 274° (W) 1,218 3.8 -10.1°
Drops below altitude 10° 15:45:54 10° 212° (SSW) 2,169 5.2 -9.5°
Sets 15:48:24 0° 201° (SSW) 3,094 6.1 -9.1°
